Regional Weather Roundup
Issued by NWS Portland, ME

Current Version | Previous Version | Text Only | Print | Product List | Glossary On
Versions: 1 2 3 4 5 6 7 8 9 10 11 12 13 14 15 16 17 18 19 20 21 22 23 24 25 26 27 28 29 30 31 32 33 34 35 36 37 38 39 40 41 42 43 44 45 46 47 48 49 50
000
ASUS41 KGYX 031110
RWRGYX
WEATHER ROUNDUP FOR MAINE AND NEW HAMPSHIRE
NATIONAL WEATHER SERVICE GRAY ME
700 AM EDT TUE MAY 03 2016

MEZ002-005-006-010-012-015-018-020-021-024-026-027-029-031200-
MAINE

CITY           SKY/WX    TMP DP  RH WIND       PRES   REMARKS
PORTLAND       CLOUDY    42  39  89 N5        29.94R
SANFORD        CLOUDY    43  37  81 CALM      29.94R
BAR HARBOR     CLOUDY    42  40  92 NW7       29.90R
WISCASSET      CLOUDY    43  41  93 CALM      29.94R
ROCKLAND       CLOUDY    42  40  92 W7        29.91S
FRYEBURG       CLOUDY    41  41 100 CALM      29.92R
LEWISTONAUBURN CLOUDY    39  36  87 CALM      29.92S
AUGUSTA        CLOUDY    41  39  93 NW3       29.92R
WATERVILLE     CLOUDY    41  39  93 CALM      29.89R
BANGOR         CLOUDY    45  41  86 N8        29.90R
GREENVILLE       N/A     36  35  96 VRB6      29.85S
MILLINOCKET    CLOUDY    41  37  86 N9        29.90S
HOULTON        CLOUDY    41  38  89 N10       29.87S
PRESQUE ISLE   CLOUDY    40  38  93 N9        29.91R
FRENCHVILLE    CLOUDY    38  34  85 NE7       29.91S
CARIBOU        CLOUDY    39  37  92 N9        29.90R
$$

NHZ002-005-008-009-011-012-014-031200-
NEW HAMPSHIRE

CITY           SKY/WX    TMP DP  RH WIND       PRES   REMARKS
PORTSMOUTH     CLOUDY    44  42  94 S5        29.92F
ROCHESTER      CLOUDY    43  40  89 CALM      29.92R
NASHUA         LGT RAIN  45  45 100 CALM      29.93S
MANCHESTER     CLOUDY    45  42  89 CALM      29.92S FOG
CONCORD        CLOUDY    43  41  93 S3        29.93R FOG
LACONIA        CLOUDY    43  39  87 CALM      29.91S
PLYMOUTH       CLOUDY    45  41  88 NW3       29.91S
BERLIN         CLOUDY    41  39  93 CALM      29.90R
WHITEFIELD     CLOUDY    43  39  86 CALM      29.91R
JAFFREY        CLOUDY    45  43  93 CALM      29.91S
KEENE          CLOUDY    45  43  93 CALM      29.93R
LEBANON        CLOUDY    42  40  92 CALM      29.91S FOG
MT WASHINGTON  CLOUDY    30  28  93 W26         N/A  WCI  16
$$

VTZ005-007-008-031200-
VERMONT

CITY           SKY/WX    TMP DP  RH WIND       PRES   REMARKS
ST JOHNSBURY     N/A     44  41  89 MISG      29.91R
MONTPELIER     CLOUDY    41  37  86 NW5       29.95R
BURLINGTON     CLOUDY    44  40  85 NE6       29.95R FOG
$$

MAZ007-012-024-CTZ003-RIZ002-NYZ038-NYZ072-031200-
SOUTHERN NEW ENGLAND AND NY

CITY           SKY/WX    TMP DP  RH WIND       PRES   REMARKS
BOSTON         LGT RAIN  46  45  93 E5        29.94S
WORCESTER      LGT RAIN  45  44  97 SE6       29.89F VSB 1/4
NANTUCKET      LGT RAIN  48  45  89 NE7       29.93S
PROVIDENCE     LGT RAIN  49  47  93 E6        29.92F FOG
HARTFORD       LGT RAIN  48  46  93 N5        29.89S FOG
ALBANY         CLOUDY    46  42  86 N8        29.91S
NEW YORK CITY  LGT RAIN  53  50  89 E8        29.87F
$$

ANZ081-ANZ082-ANZ150-NHZ014-MEZ023>029-031200-
COASTAL MARINE OBSERVATIONS

STATION/POSITION TIME  TEMP    WIND        PRES    WAVE
                       AIR SEA DIR/SP/G            HT/PER
                 (UTC) (F)     (DEG/KT/KT) (MB)    (FT/S)
MOUNT DESERT ROC 1100   43     290/ 11/ 12 1012.4R
MATINICUS ROCK   1100   42     330/ 12/ 13 1012.4R
ISLE OF SHOALS   1100   44     130/  4/  4 1013.2R
CASHES LEDGE BUO 1050   43 44  300/  6/  8 1012.9R   4/ 6
GEORGES BANK BUO 0950   46 46              1012.4    7/ 8
$$

.............KEY..............
   WCI - WIND CHILL
   TC  - TEMPERATURE IN CELSIUS
   VSB - VISIBILITY IN MILES
   HX  - HEAT INDEX
   FAIR- INDICATES FEW OR NO CLOUDS BELOW 12,000 FT, WITH NO
         SIGNIFICANT WEATHER AND/OR OBSTRUCTIONS TO VISIBILITY.






USA.gov is the U.S. government's official web portal to all federal, state and local government web resources and services.